{"data":{"norad_id":59693,"intl_designator":"2024-086M","name":"STARLINK-32088","alt_names":[],"object_type":"PAYLOAD","status":"ACTIVE","operator":null,"country":"US","launch_date":"2024-05-08","launch_site_code":"AFETR","launch_vehicle":null,"mission":null,"orbit_class":"UNKNOWN","rcs_meters":null,"size_class":null,"mass_kg":null,"dimensions":null,"purposes":["comms"],"wikipedia_slug":null,"has_3d_model":false,"image_url":null,"decayed_at":null,"tle_current":{"epoch":"2026-09-21T16:19:36.133248Z","epoch_age_seconds":69250,"freshness":"FRESH","line1":"1 59693U 24086M   26264.68027932  .00000193  00000+0  16543-4 0  9994","line2":"2 59693  43.0020  25.4948 0001176 265.8465  94.2253 15.27578399134173","mean_motion":15.27578399,"eccentricity":0.0001176,"inclination_deg":43.002,"raan_deg":25.4948,"arg_perigee_deg":265.8465,"mean_anomaly_deg":94.2253,"bstar":1.6543e-5,"rev_number":13417,"period_min":94.266847511242,"perigee_km":482.24701396513,"apogee_km":483.86076606246,"semimajor_km":6861.1908900138,"source":"CELESTRAK","updated_at":"2026-09-22T09:00:49.034232Z"}}}